[[{"header":{"parameterUnit":"m.s-1","parameterCategory":1,"la1":30.2991,"la2":30.254,"lo1":-89.0895,"lo2":-89.0444,"dy":0.0017,"dx":0.0017,"nx":28,"ny":28,"refTime":"2024-06-27T09:00:00:Z","depth":0,"parameterNumber":2,"parameterNumberName":"U-component_of_WINDS"},"data":[0,0,0,0,0,0,0,0,0,0,0,0,0,0,0,0,0,0,0,0,0,0,0,0,0,0,0,0,0,0,0,0,0,0,0,0,0,0,0,0,0,0,0,0,0,0,0,0,0,0,0,0,0,0,0,0,0,0,4.7734,4.7736,0,4.7888,4.789,4.7892,4.7877,4.7875,4.7872,4.787,4.8033,4.8039,4.8046,0,0,0,0,0,0,0,0,0,0,0,0,0,4.7434,4.7439,4.7734,4.7736,4.7738,4.7888,4.789,4.7892,4.7877,4.7874,4.7872,4.7869,4.8031,4.8038,4.8046,0,0,0,0,0,0,0,0,0,0,0,0,0,4.7574,4.7441,4.7734,4.7749,4.7751,4.7887,4.789,4.7893,4.7878,4.7874,4.7871,4.7867,4.8028,4.8038,4.8047,4.818,0,0,4.8077,4.8082,0,0,0,0,0,0,0,0,4.7566,4.7585,4.7744,4.7748,4.7751,4.786,4.7844,4.7989,4.7879,4.783,4.787,4.7866,4.7978,4.7992,4.8029,4.8188,4.8195,4.8078,4.8084,4.8088,4.8091,0,0,0,0,0,0,0,4.7556,4.7578,4.7795,4.7747,4.7751,4.775,4.7765,4.7871,4.7923,4.7834,4.7833,4.7852,4.798,4.802,4.8033,4.8197,4.8078,4.8087,4.8093,4.8097,4.8476,4.848,0,0,0,0,0,0,4.7542,4.757,4.779,4.78,4.7647,4.7758,4.7776,4.7829,4.7921,4.7932,4.7854,4.785,4.8004,4.8021,4.8038,4.8202,4.8088,4.8098,4.8103,4.8472,4.8477,4.8481,0,0,0,0,0,0,4.7536,4.7562,4.7784,4.7685,4.7713,4.7767,4.7826,4.7833,4.7873,4.7937,4.7946,4.7885,4.8002,4.8025,4.8145,4.8207,4.8102,4.8111,4.8467,4.8473,4.8479,4.8528,0,0,0,0,0,0,4.7527,4.7559,4.7609,4.7686,4.7718,4.7886,4.783,4.7839,4.789,4.7886,4.7968,4.7979,4.8001,4.8131,4.8155,4.8219,4.8119,4.8462,4.847,4.8477,4.8522,4.8536,4.8548,0,0,0,0,0,4.7516,4.7617,4.7611,4.7638,4.7781,4.789,4.7909,4.7931,4.7895,4.7946,4.7987,4.7976,4.8196,4.8143,4.817,4.8238,4.8458,4.8467,4.8476,4.8516,4.8533,4.8547,0,0,0,0,0,0,4.7547,4.7627,4.7622,4.775,4.7813,4.7887,4.7952,4.7948,4.8024,4.8017,4.8043,4.8062,4.8184,4.8223,4.8163,4.8373,4.8323,4.8338,4.8343,4.836,4.8373,4.8361,4.8127,0,0,0,0,0,4.7568,4.7648,4.7715,4.7822,4.7854,4.7898,4.7946,4.7958,4.8025,4.8052,4.8102,4.8169,4.8254,4.8309,4.839,4.8527,4.8547,4.8588,4.8601,4.8611,4.8624,4.8702,4.8722,4.8512,4.8512,4.8512,0,0,4.7613,4.7667,4.7717,4.783,4.788,4.7964,4.792,4.8011,4.8075,4.8066,4.8183,4.8223,4.83,4.843,4.849,4.8466,4.8687,4.8623,4.8631,4.8639,4.8714,4.8734,4.8751,4.8518,4.8517,4.8516,0,0,4.7739,4.7787,4.7883,4.7934,4.8011,4.804,4.8063,4.8138,4.8164,4.8281,4.8278,4.8355,4.85,4.8555,4.8602,4.8753,4.8746,4.8779,4.8847,4.8923,4.8939,4.8954,4.901,4.9029,4.8792,4.8792,4.8792,0,4.7787,4.7912,4.7933,4.8025,4.8076,4.8071,4.817,4.8219,4.8319,4.8356,4.8327,4.851,4.8562,4.8706,4.8743,4.8781,4.881,4.8769,4.8935,4.895,4.8964,4.9017,4.9038,4.8795,4.8795,4.8794,4.8794,0,4.7967,4.8055,4.8123,4.8219,4.8277,4.8372,4.841,4.8467,4.8475,4.8507,4.8629,4.8691,4.8785,4.8821,4.8829,4.8968,4.8951,4.8929,4.8878,4.8987,4.9038,4.9058,4.88,4.8799,4.8798,4.8797,0,0,4.8116,4.8223,4.8248,4.8292,4.8377,4.8446,4.8543,4.8634,4.8684,4.8754,4.8836,4.896,4.8941,4.8994,4.901,4.9076,4.9194,4.9046,4.9049,4.9073,4.9353,4.9369,4.9392,4.919,4.9194,4.9197,4.9346,0,4.8251,4.8419,4.8442,4.8592,4.8674,4.8673,4.8757,4.882,4.8854,4.893,4.8969,4.9056,4.9023,4.9056,4.9122,4.9165,4.925,4.9155,4.9269,4.9273,4.925,4.9418,4.9435,4.9573,4.9366,4.937,4.9372,0,4.8431,4.8505,4.8663,4.8739,4.8775,4.885,4.8937,4.9009,4.9082,4.9102,4.9163,4.9171,4.9273,4.9219,4.9362,4.9296,4.9345,4.9374,4.938,4.9392,4.9329,4.9436,4.9617,4.9638,4.9403,4.94,4.9398,0,4.8525,4.8665,4.8778,4.8816,4.8907,4.896,4.9001,4.907,4.9124,4.9201,4.9237,4.9326,4.9374,4.9444,4.9476,4.9433,4.9618,4.9565,4.964,4.9639,4.9679,4.9676,4.9872,4.9709,4.9708,4.9708,4.9708,0,4.8675,4.8772,4.8822,4.8891,4.9001,4.9027,4.9136,4.9175,4.9237,4.9316,4.9321,4.9395,4.9433,4.9514,4.954,4.9656,4.9678,4.9699,4.9705,4.9699,4.9696,4.9731,4.9723,4.9714,4.9712,4.9711,4.971,0,4.8798,4.8835,4.8959,4.9035,4.9057,4.9135,4.9201,4.927,4.9304,4.9404,4.9429,4.9484,4.9579,4.9618,4.9736,4.9754,4.9888,4.9886,4.9863,4.9865,4.9937,4.993,5.0163,5.0195,5.001,5.0012,5.0013,0,4.8891,4.8966,4.9051,4.9103,4.9146,4.923,4.9286,4.9316,4.9374,4.9464,4.9523,4.9618,4.9696,4.985,4.9902,4.9993,4.9994,5.0069,5.0007,5.0,4.9996,4.9992,5.0,5.008,5.0082,5.0084,5.0085,0,4.9053,4.9068,4.9147,4.9234,4.93,4.937,4.9438,4.9481,4.9522,4.9588,4.9685,4.9746,4.9867,4.9962,5.0057,5.0101,5.0102,5.0104,5.0126,5.0121,5.0105,5.0116,4.9894,5.0099,5.0097,5.0096,5.0095,5.0095,4.9166,4.9232,4.9303,4.9392,4.9446,4.951,4.9579,4.9622,4.9703,4.9802,4.9816,4.9921,4.9995,5.0121,5.017,5.0254,5.0235,5.0267,5.0275,5.0283,5.0288,5.0091,5.0272,5.0271,5.0271,5.0271,5.0271,0,4.9329,4.9374,4.9456,4.9551,4.9621,4.9614,4.9689,4.975,4.9841,4.9909,4.9986,5.01,5.0193,5.0252,5.0347,5.0404,5.0406,5.0428,5.0424,5.0435,5.0299,5.0271,5.0424,5.0424,5.0424,5.0424,5.0424,5.0424,4.9422,4.9535,4.9559,4.9701,4.9747,4.9848,4.9893,4.9953,5.0007,5.0133,5.021,5.0248,5.0314,5.0413,5.05,5.0515,5.0551,5.0574,5.0588,5.046,5.0444,5.0429,5.0403,5.0581,5.0581,5.0716,5.0718,5.0719]},{"header":{"parameterUnit":"m.s-1","parameterCategory":1,"la1":30.2991,"la2":30.254,"lo1":-89.0895,"lo2":-89.0444,"dy":0.0017,"dx":0.0017,"nx":28,"ny":28,"refTime":"2024-06-27T09:00:00:Z","depth":0,"parameterNumber":3,"parameterNumberName":"V-component_of_WINDS"},"data":[0,0,0,0,0,0,0,0,0,0,0,0,0,0,0,0,0,0,0,0,0,0,0,0,0,0,0,0,0,0,0,0,0,0,0,0,0,0,0,0,0,0,0,0,0,0,0,0,0,0,0,0,0,0,0,0,0,0,1.4865,1.4866,0,1.4903,1.4903,1.4904,1.4887,1.4886,1.4885,1.4885,1.4923,1.4925,1.4927,0,0,0,0,0,0,0,0,0,0,0,0,0,1.4779,1.478,1.4865,1.4866,1.4866,1.4903,1.4903,1.4904,1.4887,1.4886,1.4885,1.4884,1.4923,1.4925,1.4927,0,0,0,0,0,0,0,0,0,0,0,0,0,1.4816,1.4781,1.4865,1.4863,1.4863,1.4903,1.4903,1.4904,1.4888,1.4886,1.4885,1.4884,1.4922,1.4925,1.4927,1.4972,0,0,1.4936,1.4937,0,0,0,0,0,0,0,0,1.4814,1.482,1.4863,1.4863,1.4863,1.4889,1.4887,1.4927,1.4888,1.4878,1.4885,1.4883,1.4913,1.4916,1.4926,1.4974,1.4976,1.4936,1.4938,1.4939,1.494,0,0,0,0,0,0,0,1.4812,1.4818,1.488,1.4863,1.4863,1.4859,1.4863,1.4894,1.4903,1.4879,1.4878,1.4882,1.4913,1.4924,1.4927,1.4976,1.4936,1.4939,1.494,1.4941,1.506,1.5062,0,0,0,0,0,0,1.4809,1.4816,1.4879,1.4881,1.4835,1.4862,1.4866,1.4882,1.4902,1.4904,1.4884,1.4882,1.492,1.4924,1.4928,1.4981,1.4939,1.4942,1.4943,1.5059,1.506,1.5062,0,0,0,0,0,0,1.4807,1.4815,1.4877,1.4848,1.4856,1.4865,1.4883,1.4883,1.4894,1.4906,1.4907,1.4893,1.4919,1.4924,1.4961,1.4982,1.4943,1.4946,1.5057,1.5059,1.5061,1.5087,0,0,0,0,0,0,1.4805,1.4814,1.4832,1.4849,1.4857,1.491,1.4884,1.4885,1.4899,1.4897,1.4915,1.4917,1.4918,1.4957,1.4964,1.4985,1.4948,1.5055,1.5058,1.5061,1.5084,1.509,1.5094,0,0,0,0,0,1.4802,1.4838,1.4833,1.4841,1.488,1.4911,1.4916,1.4916,1.4901,1.4918,1.4925,1.4917,1.4979,1.4961,1.4968,1.4991,1.5054,1.5057,1.506,1.5082,1.5089,1.5094,0,0,0,0,0,0,1.4824,1.484,1.4835,1.4878,1.4893,1.4908,1.493,1.4924,1.4944,1.4941,1.494,1.4945,1.4982,1.499,1.497,1.5034,1.5014,1.5019,1.5027,1.5034,1.5039,1.5036,1.495,0,0,0,0,0,1.4834,1.4859,1.4871,1.4908,1.4916,1.4922,1.4935,1.4934,1.495,1.4956,1.4966,1.4982,1.5005,1.502,1.5042,1.5085,1.5088,1.5104,1.5109,1.5114,1.5118,1.5139,1.5146,1.5073,1.5073,1.5073,0,0,1.4855,1.4867,1.4882,1.4913,1.4924,1.4949,1.4927,1.4955,1.4973,1.4961,1.4995,1.5003,1.502,1.506,1.5078,1.5068,1.5139,1.5118,1.5121,1.5123,1.5143,1.515,1.5157,1.5075,1.5075,1.5074,0,0,1.4905,1.4917,1.4948,1.496,1.4977,1.4981,1.4988,1.5004,1.5008,1.5043,1.5034,1.5055,1.5095,1.5107,1.5118,1.5171,1.5163,1.5178,1.5204,1.5226,1.5231,1.5236,1.5254,1.526,1.5182,1.5182,1.5182,0,1.4929,1.4966,1.4965,1.4992,1.5005,1.4995,1.5025,1.5037,1.5061,1.507,1.5058,1.5106,1.5118,1.5159,1.5171,1.5182,1.5189,1.5176,1.5231,1.5236,1.5241,1.5257,1.5264,1.5184,1.5184,1.5184,1.5183,0,1.4993,1.5018,1.5041,1.5064,1.5079,1.5108,1.5111,1.5127,1.5124,1.5128,1.5162,1.5175,1.5198,1.5208,1.5206,1.5249,1.5242,1.5231,1.521,1.5249,1.5265,1.5271,1.5186,1.5186,1.5185,1.5185,0,0,1.5059,1.5079,1.5088,1.5097,1.5115,1.5134,1.5162,1.5184,1.5197,1.5214,1.5236,1.5269,1.5258,1.5271,1.527,1.5289,1.5327,1.5275,1.5275,1.5283,1.5374,1.5381,1.5389,1.5322,1.5324,1.5325,1.5372,0,1.5109,1.5158,1.5157,1.5202,1.5225,1.5214,1.5238,1.5252,1.5256,1.5275,1.528,1.5303,1.5288,1.5295,1.5313,1.5319,1.5345,1.5316,1.5342,1.5343,1.5338,1.5397,1.5405,1.5449,1.5378,1.5379,1.538,0,1.5175,1.5193,1.524,1.5252,1.5262,1.5284,1.5303,1.5322,1.5336,1.5338,1.5351,1.5346,1.5374,1.5352,1.5389,1.5369,1.5379,1.5384,1.5385,1.5387,1.5363,1.5399,1.5464,1.547,1.5389,1.5389,1.5388,0,1.5217,1.5252,1.5284,1.5293,1.5309,1.5324,1.5332,1.5344,1.5357,1.5374,1.5382,1.5402,1.5413,1.5428,1.5428,1.5413,1.5465,1.5444,1.5466,1.5466,1.5477,1.5476,1.5543,1.5486,1.5486,1.5486,1.5485,0,1.5273,1.5301,1.5303,1.5323,1.5354,1.5353,1.5384,1.539,1.5401,1.5421,1.5413,1.5432,1.5432,1.5451,1.5451,1.5481,1.5486,1.5488,1.5487,1.5488,1.5487,1.5494,1.5491,1.5487,1.5487,1.5487,1.5486,0,1.5324,1.5327,1.5361,1.5373,1.5376,1.5399,1.5409,1.5427,1.543,1.5456,1.5461,1.5466,1.5488,1.549,1.5516,1.5516,1.5551,1.5548,1.5546,1.5545,1.5567,1.5564,1.564,1.5649,1.5587,1.5587,1.5588,0,1.5359,1.5381,1.5395,1.5407,1.5415,1.5436,1.5449,1.5448,1.5461,1.5478,1.5494,1.5515,1.5531,1.5566,1.5572,1.5591,1.5587,1.5612,1.559,1.559,1.5586,1.5585,1.5586,1.5617,1.5617,1.5618,1.5618,0,1.5421,1.542,1.5439,1.5457,1.5472,1.5487,1.5501,1.5511,1.5512,1.5527,1.5549,1.5562,1.5587,1.5607,1.5625,1.5632,1.5625,1.5625,1.5631,1.5632,1.5629,1.5629,1.5557,1.5623,1.5623,1.5623,1.5622,1.5622,1.5464,1.5482,1.5494,1.5515,1.5524,1.5537,1.5554,1.5559,1.5577,1.5597,1.5595,1.5619,1.5631,1.5655,1.5663,1.5681,1.5673,1.5682,1.5684,1.5686,1.5687,1.5627,1.5685,1.5685,1.5684,1.5684,1.5684,0,1.5524,1.5531,1.5549,1.5568,1.5584,1.5575,1.5589,1.5603,1.5624,1.5636,1.5652,1.5676,1.5695,1.5702,1.572,1.5733,1.573,1.5738,1.5737,1.5738,1.5695,1.5687,1.574,1.574,1.574,1.574,1.574,1.574,1.5557,1.5586,1.5587,1.5621,1.5628,1.565,1.5659,1.567,1.5679,1.5706,1.5722,1.5726,1.5736,1.5754,1.5771,1.5773,1.5779,1.5788,1.5788,1.5747,1.5741,1.5736,1.5729,1.579,1.579,1.583,1.583,1.5831]}]]